Weather in Dedovichi

Russia / Pskov Oblast     57°32′55″N   29°56′42″E
temp.,
°C
wind,
m/s
gust,
m/s
humid.,
%
clouds,
%
prec.,
mm/h
press.,
hPa
HPBL,
m
11 may, tue
tue1100:00+9s31191100 0.0 1025202
03:00+8s379289 0.0 1026125
06:00+8s399136 0.0 1026187
09:00+14s486452 0.0 1026442
12:00+18s565040 0.0 1026978
15:00+20sse45455 0.0 10251261
18:00+20sse36555 0.0 1023529
21:00+13se34744 0.0 102342
12 may, wed
wed1200:00+10sse38745 0.0 1024142
03:00+9sse36830 0.0 102496
06:00+9sse26870 0.0 1024117
09:00+16se35710 0.0 1024372
12:00+20se46610 0.0 10231165
15:00+22se5856100 0.0 10212097
18:00+20ese376696 0.0 1020302
21:00+15ne227940 0.0 101820
13 may, thu
thu1300:00+13ene2294100 0.3 101741
03:00+14e51292100 0.4 1015602
06:00+12se5119325 0.1 1015649
09:00+13se597220 0.2 1016762
12:00+17se711585 0.0 10141932
15:00+18se610465 0.0 10132299
18:00+14e487198 0.1 1012471
21:00+11se259099 0.6 1012176
14 may, fri
fri1400:00+8se239643 0.0 101259
03:00+7sse2496100 0.0 101286
06:00+7se389473 0.0 1012200
09:00+12se4876100 0.0 1012510
12:00+16sse6862100 0.0 10121115
15:00+16se686599 0.0 10111050
18:00+17ese486798 0.0 10101136
21:00+13e378930 0.0 1009124
15 may, sat
sat1500:00+11e389699 0.4 1008159
03:00+10ese2399100 0.4 100766
06:00+11se239965 0.0 100796
09:00+16sse348249 0.0 1006433
12:00+19sse467539 1.3 10051107
15:00+18ssw567979 5.1 1005924
18:00+18sw468232 1.3 1004797
21:00+14wsw499499 3.1 1005313